STARLINK-1524, 46047

Orbit data source: Space-Track

STARLINK-1524, 46047 is a payload satellite owned by SpaceX/Seattle (US) in LEO that was launched on Fri, 07 Aug 2020 UTC via an FALCON 9 launch vehicle from the Air Force Eastern Test Range (AFETR). Payload-class satellites include a variety of spacecraft equipped with specific instruments for various scientific and technological missions. These include communications satellites like Starlink; space stations such as the ISS; scientific satellites like the Hubble; Earth observation satellites from companies like Planet Labs, Umbra, and HawkEye 360; GPS; miniature CubeSats for education and research; and military/defense satellites.

Loading next visibility...
Identifier
46047, 2020-055W
Orbit
LEO
Country
Flag of USUS
Related business
Manufacturer
SpaceX/Seattle
Mission
Operational Commercial Communications
Bus & Motor
STARLINK, Unknown motor
Mass
260 kg wet, ~248 kg dry
Launch date (UTC)
2020-08-07 (6 years ago)
Launch vehicle
FALCON 9
Launch site
Air Force Eastern Test Range (AFETR)
Object type
Payload
Rocket body
Debris
Shape & HBR
Box + 1 Pan, 10.1 m
Radar Cross Section
13.562 m², Large (>1 m²)

Expand to show TLE details & history
Last TLE update: 15 hours ago

TLE from 15 hours ago
0 STARLINK-1524
1 46047U 20055W   26221.45427294  .00003143  00000-0  11295-3 0  9995
2 46047  53.1599 123.1571 0001545  73.4589 286.6582 15.31715312332471
Epoch: 2026-08-09T10:54Z
TLE epoch observation values (Epoch: 2026-08-09T10:54:09.182Z)
Latitude
-0°
Longitude
1.66781°
Altitude
471.291 km
Speed
7.632 km/s
True Right ascension
08h 12m 37s
True Declination
0° 00' 00"
Sunlit
Object was in daylight at epoch
Visualization orbit readout
Latitude
Unknown
Longitude
Unknown
Altitude
Unknown
Speed
Unknown
Apparent Right ascension
Unknown
Apparent Declination
Unknown
Sunlit
N/A
Visualization observer readout
Local Sidereal Time
15:57:48
Azimuth
Unknown
Elevation
Unknown
Doppler factor
Unknown
Orbital elements
Apogee altitude
472.009 km
Perigee altitude
469.893 km
Semi-major axis
6,849.088 km
Eccentricity
0.00015
Inclination
53.1599°
RAAN
123.1571°
Arg. of periapsis
73.4589°
True anomaly
286.64124°
Mean anomaly
286.6582°
Eccentric anomaly
286.64972°
Mean motion
3.82908 °/min
Orbital period
94.02 mins
BSTAR
0.00011295
Loading maneuver chart data...
Computing Atmospheric mass density...
Loading historical data...
Loading historical data...
Loading historical data...
Loading historical data...
Loading historical data...
Loading historical data...
Loading historical data...

Documentation

Showing up to 5 results
|